GSAT-17

Last updated on Thu Jul 03 2025 00:02:33 GMT+0000 (Coordinated Universal Time)

1 42815U 17040B 25183.57266933 -.00000250 00000+0 00000+0 0 9998 2 42815 0.0356 104.9044 0001467 181.8561 293.7402 1.00270952 29280
UTC large
Height (km)
Speed (km/s)
/
Latitude / Longitude
Inclination (degrees)
Orbital Period (minutes)
Azimuth
Elevation
Range (km)
Doppler Factor

Next 0 passes for location: London (51.5072 / 0.1276)

Sorry there are no passes over London.